Regional Weather Roundup
Issued by NWS Glasgow, MT

Home | Current Version | Previous Version | Text Only | Print | Product List | Glossary On
Versions: 1 2 3 4 5 6 7 8 9 10 11 12 13 14 15 16 17 18 19 20 21 22 23 24 25 26 27 28
000
ASUS45 KGGW 221515
RWRGGW
HOURLY REGIONAL WEATHER ROUNDUP FOR NORTHEAST MONTANA
NATIONAL WEATHER SERVICE GLASGOW MONTANA
900 AM MDT TUE AUG 22 2017

NOTE: "FAIR" INDICATES FEW OR NO CLOUDS BELOW 12,000 FEET WITH NO
SIGNIFICANT WEATHER AND/OR OBSTRUCTIONS TO VISISBILITY.

NORTHEAST MONTANA


CITY           SKY/WX    TMP DP  RH WIND       PRES   REMARKS
GLASGOW        NOT AVBL
PLENTYWOOD       N/A     60  34  37 CALM        N/A
WOLF POINT     SUNNY     61  35  37 E5        30.21S
JORDAN           N/A     61  34  36 E3        30.18F
WINNETT          N/A     66  35  31 E1          N/A
SIDNEY         SUNNY     56  43  61 S3        30.22S
GLENDIVE       SUNNY     64  37  36 SE3       30.22F
MALTA            N/A     60  38  43 E3          N/A

FORT PECK REPORTS


CITY           SKY/WX    TMP DP  RH WIND       PRES   REMARKS
FORT PECK        N/A     69  39  33 SE6         N/A
THE PINES        N/A     64  34  32 SE3         N/A

SOUTHEAST MONTANA


CITY           SKY/WX    TMP DP  RH WIND       PRES   REMARKS
BILLINGS       MOSUNNY   58  38  47 SW7       30.21R
MILES CITY     SUNNY     66  36  32 E6        30.19R
BAKER          CLOUDY    65  38  36 SE6       30.23S
LIVINGSTON     SUNNY     56  36  47 NW6       30.24S

CENTRAL MONTANA


CITY           SKY/WX    TMP DP  RH WIND       PRES   REMARKS
HAVRE          SUNNY     60  39  45 NE3       30.15S
LEWISTOWN        N/A     64  36  35 CALM      30.20S
GREAT FALLS    SUNNY     62  36  37 SW5       30.18S
CUT BANK       SUNNY     59  38  45 CALM      30.18S
HELENA         SUNNY     60  38  43 NE3       30.23R
BUTTE          SUNNY     51  35  54 SE3       30.30R
BOZEMAN        SUNNY     59  40  49 NE3       30.25R

WESTERN MONTANA


CITY           SKY/WX    TMP DP  RH WIND       PRES   REMARKS
MISSOULA       SUNNY     54  41  61 W3        30.20R HAZE
KALISPELL      NOT AVBL

NORTH DAKOTA


CITY           SKY/WX    TMP DP  RH WIND       PRES   REMARKS
WILLISTON      SUNNY     59  44  57 S6        30.21S
DICKINSON      SUNNY     66  40  38 S3        30.22S
MINOT          SUNNY     67  42  40 W14       30.17S
BISMARCK       SUNNY     62  48  60 W5        30.21R

SOUTHERN SASKATCHEWAN


CITY           SKY/WX    TMP DP  RH WIND       PRES   REMARKS
REGINA         PTSUNNY   59  37  44 CALM      30.18S
MOOSE JAW      MOSUNNY   61  45  55 E3        30.18S
ESTEVAN        MOSUNNY   61  41  48 W6        30.19S
SWIFT CURRENT  SUNNY     68  32  26 SW18      30.15F





USA.gov is the U.S. government's official web portal to all federal, state and local government web resources and services.